Flag for Canada Weather past 2 weeks in Strathcona County, Alberta, Canada

Now
59 °F

Partly sunny.


Feels Like: 58 °F
Forecast: 43 / 59 °F
Wind: 8 mph from Southeast

Location: Edmonton Municipal

Current Time: Aug 22, 2014 at 2:17:21 PM

Latest Report: Aug 22, 2014 at 1:00 PM


Visibility: 9 mi

Pressure: 30.37 "Hg

Humidity: 45%

Dew point: 37 °F

Location of Strathcona CountyLocation

Historic Weather in Strathcona County — Graph

°F

Strathcona County temperature yesterday

Maximum temperature yesterday: 59 °F (at 2:00 PM)
Minimum temperature yesterday: 48 °F (at 12:00 AM)
Average temperature yesterday: 53 °F

Past Weeks' High & Low Weather Summary

 TemperatureHumidityPressure
High84 °F (Aug 12, 3:00 PM)100% (Aug 14, 4:00 AM)30.37 "Hg (Aug 14, 4:00 AM)
Low46 °F (Aug 22, 7:00 AM)29% (Aug 14, 5:00 PM)29.67 "Hg (Aug 19, 6:00 PM)
Average66 °F68%29.97 "Hg
* Reported Aug 7 1:00 PM — Aug 22 1:00 PM, Strathcona County, Weather by CustomWeather, © 2014

Note: Actual official high and low records may vary slightly from our data, if they occured in-between our weather recording intervals... More about our weather records

Advertising

Strathcona County weather history for previous 24 hours

 ConditionsComfort  
Time TempWeatherWind HumidityBarometerVisibility
1:00 PM
Aug 22
59 °FPartly sunny.8 mph45%30.37 "Hg9 mi
12:00 PM59 °FOvercast.7 mph45%30.37 "Hg9 mi
11:00 AM57 °FOvercast.7 mph48%30.37 "Hg9 mi
10:00 AM55 °FOvercast.7 mph59%30.37 "Hg9 mi
9:00 AM54 °FOvercast.2 mph67%30.36 "Hg9 mi
8:00 AM50 °FOvercast.3 mph76%30.36 "Hg9 mi
7:00 AM46 °FPassing clouds.5 mph82%30.36 "Hg9 mi
6:00 AM48 °FPassing clouds.No wind76%30.34 "Hg9 mi
5:00 AM50 °FOvercast.2 mph71%30.32 "Hg9 mi
4:00 AM50 °FOvercast.5 mph71%30.32 "Hg9 mi
3:00 AM52 °FOvercast.6 mph67%30.30 "Hg9 mi
2:00 AM50 °FOvercast.2 mph71%30.31 "Hg9 mi
1:00 AM52 °FOvercast.5 mph72%30.31 "Hg9 mi
12:00 AM52 °FOvercast.2 mph72%30.30 "Hg9 mi
11:00 PM
Aug 21
52 °FOvercast.3 mph72%30.30 "Hg9 mi
10:00 PM54 °FOvercast.5 mph63%30.29 "Hg9 mi
9:00 PM54 °FOvercast.9 mph63%30.28 "Hg9 mi
8:00 PM55 °FOvercast.8 mph59%30.26 "Hg9 mi
7:00 PM57 °FPassing clouds.8 mph59%30.25 "Hg9 mi
6:00 PM57 °FOvercast.10 mph59%30.24 "Hg9 mi
5:00 PM59 °FPartly sunny.7 mph59%30.24 "Hg9 mi
4:00 PM59 °FOvercast.9 mph55%30.23 "Hg9 mi
3:00 PM59 °FOvercast.8 mph51%30.23 "Hg9 mi
2:00 PM59 °FMore clouds than sun.2 mph59%30.22 "Hg9 mi
Weather by CustomWeather, © 2014

See weather overviewHow to use our weather pages